Regional Weather Roundup
Issued by NWS

Home | Current Version | Previous Version | Text Only | Print | Product List | Glossary Off
Versions: 1 2 3 4 5 6 7 8 9 10 11 12 13 14 15 16 17 18 19 20 21 22 23 24 25 26 27 28 29 30 31 32 33 34 35 36 37 38 39 40 41 42 43 44 45 46 47 48 49 50

000
ASUS43 KLSX 270757
RWRMO

WEATHER SUMMARY FOR MISSOURI
NATIONAL WEATHER SERVICE SPRINGFIELD MO
300 AM CDT MON MAR 27 2017

NOTE: "FAIR" INDICATES FEW OR NO CLOUDS BELOW 12,000 FEET WITH NO
       SIGNIFICANT WEATHER AND/OR OBSTRUCTIONS TO VISIBILITY.
       CURRENT SKY AND/OR WEATHER CONDITIONS ARE NOT AVAILABLE FOR
       CHILLICOTHE AND FARMINGTON.

MOZ001>031-035>038-043-044-053-054-270900-
...NORTHERN AND WESTERN MISSOURI...

CITY           SKY/WX    TMP DP  RH WIND       PRES   REMARKS
KANSAS CTY INT LGT RAIN  46  45  96 NE18      29.84F
LEE`S SUMMIT   RAIN      47  46  97 NE12      29.85F FOG
ST JOSEPH      LGT RAIN  46  46 100 NE5       29.89F
CHILLICOTHE      N/A     48  44  86 CALM      29.91F

$$
MOZ066>068-077>081-088>096-101>105-270900-
...SOUTHWEST MISSOURI...

CITY           SKY/WX    TMP DP  RH WIND       PRES   REMARKS
SPRINGFIELD    CLOUDY    56  53  90 E12       29.76F

$$
MOZ032>034-039>042-045>050-055>058-069>072-270900-
...CENTRAL MISSOURI...

CITY           SKY/WX    TMP DP  RH WIND       PRES   REMARKS
COLUMBIA       LGT RAIN  50  48  93 NE8       29.87F
JEFFERSON CITY CLOUDY    54  49  83 SE5       29.87F
ROLLA          CLOUDY    53  50  89 SE6       29.86F
SEDALIA        CLOUDY    51  48  89 NE8       29.87F
WARRENSBURG    RAIN      48  45  87 NE6       29.87S

$$
MOZ051-052-059>065-270900-
...EAST CENTRAL MISSOURI...

CITY           SKY/WX    TMP DP  RH WIND       PRES   REMARKS
ST LOUIS INTL  CLOUDY    53  48  83 NE5       29.90F

$$
MOZ072>076-082>087-097>100-106>115-270900-
...SOUTH CENTRAL AND SOUTHEAST MISSOURI...

CITY           SKY/WX    TMP DP  RH WIND       PRES   REMARKS
CAPE GIRARDEAU CLOUDY    50  47  89 E6        29.90F
POPLAR BLUFF   MOCLDY    55  52  89 NE3       29.86F
WEST PLAINS    TSTM      58  51  78 W7        29.89R

$$


USA.gov is the U.S. government's official web portal to all federal, state and local government web resources and services.